Flag for Vietnam Weather past 2 weeks in Hanoi, Vietnam

Now
84 °F

Clear.


Feels Like: 96 °F
Forecast: 75 / 92 °F
Wind: 7 mph from Southeast

Location: Ha Noi Airport

Current Time: Aug 30, 2014 at 7:57:50 PM

Latest Report: Aug 30, 2014 at 7:30 PM


Visibility: 10 mi

Pressure: 29.77 "Hg

Humidity: 84%

Dew point: 79 °F

Location of HanoiLocation

Historic Weather in Hanoi — Graph

°F

Hanoi temperature yesterday

Maximum temperature yesterday: 81 °F (at 10:30 AM)
Minimum temperature yesterday: 75 °F (at 1:30 PM)
Average temperature yesterday: 77 °F

Past Weeks' High & Low Weather Summary

 TemperatureHumidityPressure
High95 °F (Aug 17, 1:00 PM)100% (Aug 16, 2:30 AM)29.92 "Hg (Aug 16, 2:30 AM)
Low75 °F (Aug 29, 1:30 PM)53% (Aug 17, 12:30 PM)29.59 "Hg (Aug 17, 3:00 PM)
Average82 °F86%29.76 "Hg
* Reported Aug 15 6:00 PM — Aug 30 6:30 PM, Hanoi, Weather by CustomWeather, © 2014

Note: Actual official high and low records may vary slightly from our data, if they occured in-between our weather recording intervals... More about our weather records

Advertising

Hanoi weather history for previous 24 hours

 ConditionsComfort  
Time TempWeatherWind HumidityBarometerVisibility
6:30 PM
Aug 30
86 °FPassing clouds.7 mph70%29.77 "HgN/A
6:00 PM88 °FPartly sunny.6 mph66%29.77 "HgN/A
5:30 PM90 °FPartly sunny.5 mphN/AN/AN/A
5:00 PM90 °FPartly sunny.3 mph63%29.77 "HgN/A
4:30 PM90 °FPartly sunny.3 mph63%29.77 "HgN/A
4:00 PM90 °FScattered clouds.3 mph67%29.77 "HgN/A
3:30 PM88 °FScattered clouds.6 mph70%29.77 "HgN/A
3:00 PM86 °FScattered clouds.6 mph70%29.80 "HgN/A
2:30 PM86 °FScattered clouds.6 mph70%29.80 "HgN/A
2:00 PM90 °FScattered clouds.5 mph67%29.83 "HgN/A
1:30 PM91 °FScattered clouds.7 mph63%29.83 "HgN/A
1:00 PM90 °FScattered clouds.7 mph67%29.86 "HgN/A
12:30 PM90 °FScattered clouds.6 mph67%29.86 "HgN/A
12:00 PM90 °FPartly sunny.2 mph71%29.89 "HgN/A
11:30 AM86 °FPartly sunny.5 mph75%29.89 "HgN/A
11:00 AM84 °FPartly sunny.5 mph79%29.89 "HgN/A
10:30 AM84 °FPartly sunny.6 mph79%29.92 "HgN/A
10:00 AM86 °FPartly sunny.6 mph75%29.92 "HgN/A
9:30 AM86 °FBroken clouds.3 mph79%29.92 "HgN/A
9:00 AM82 °FBroken clouds.3 mph84%29.92 "HgN/A
8:30 AM82 °FPartly sunny.6 mph89%29.89 "HgN/A
8:00 AM79 °FBroken clouds.3 mph94%29.89 "HgN/A
7:30 AM77 °FBroken clouds.1 mph100%29.89 "HgN/A
7:00 AM77 °FBroken clouds.3 mph100%29.89 "HgN/A
6:30 AM77 °FBroken clouds.3 mph94%29.89 "HgN/A
6:00 AM75 °FBroken clouds.6 mph100%29.89 "HgN/A
5:30 AM75 °FPartly cloudy.5 mph100%29.86 "HgN/A
5:00 AM75 °FPartly cloudy.6 mph100%29.86 "HgN/A
4:30 AM75 °FPassing clouds.5 mph100%29.89 "Hg4 mi
4:00 AM75 °FRain. Partly cloudy.3 mph100%N/A2 mi
2:00 AM77 °FThunderstorms. Partly cloudy.5 mph94%29.86 "Hg3 mi
1:30 AM77 °FRain. Passing clouds.6 mph94%29.86 "Hg3 mi
1:00 AM77 °FPassing clouds.5 mph94%29.89 "Hg3 mi
12:30 AM77 °FPassing clouds.3 mph100%29.89 "Hg4 mi
12:00 AM77 °FPassing clouds.6 mph94%29.89 "Hg4 mi
11:30 PM
Aug 29
77 °FPassing clouds.3 mph100%29.92 "HgN/A
11:00 PM77 °FPassing clouds.5 mph94%29.89 "HgN/A
10:30 PM75 °FPassing clouds.5 mph100%29.89 "HgN/A
10:00 PM75 °FClear.6 mph100%29.89 "Hg3 mi
9:30 PM77 °FPassing clouds.6 mph94%29.89 "HgN/A
9:00 PM77 °FPassing clouds.6 mph94%29.89 "HgN/A
8:30 PM77 °FPassing clouds.3 mph100%29.89 "Hg4 mi
8:00 PM77 °FPartly cloudy.5 mph94%29.86 "HgN/A
7:30 PM77 °FPartly cloudy.3 mph94%29.86 "Hg6 mi
7:00 PM77 °FPartly cloudy.5 mph100%29.86 "Hg5 mi
Weather by CustomWeather, © 2014

See weather overviewHow to use our weather pages